This is the latest recevied weather packets stored in our database for station/object IW1QLH-13. If no packets are shown the sender has not sent any weather packets the latest 10 day(s).
| Time | Temp. | Humidity | Pressure | Rain* | Wind** | Luminosity | Snow |
|---|---|---|---|---|---|---|---|
| 1777316915 | 15.56° C | 87% | 1009.5 hPa | - | - | 14 W/m² | - |
| 1777316281 | 16.67° C | 87% | 1009.4 hPa | - | - | - | - |
| 1777315651 | 16.67° C | 86% | 1009.2 hPa | - | - | - | - |
| 1777315019 | 16.67° C | 85% | 1009.2 hPa | - | - | - | - |
| 1777314383 | 16.67° C | 85% | 1009.2 hPa | - | - | 14 W/m² | - |
| 1777313754 | 16.67° C | 85% | 1009.2 hPa | - | - | 14 W/m² | - |
| 1777313125 | 16.67° C | 84% | 1009.2 hPa | - | - | 14 W/m² | - |
| 1777312496 | 16.67° C | 83% | 1009.2 hPa | - | - | 14 W/m² | - |
| 1777311866 | 16.67° C | 83% | 1009.2 hPa | - | - | 14 W/m² | - |
| 1777311237 | 16.67° C | 83% | 1009.3 hPa | - | - | 14 W/m² | - |
| 1777310606 | 16.67° C | 83% | 1009.4 hPa | - | - | 28 W/m² | - |
| 1777309976 | 17.78° C | 82% | 1009.4 hPa | - | - | 28 W/m² | - |
| 1777309345 | 17.78° C | 81% | 1009.4 hPa | - | - | 57 W/m² | - |
| 1777308715 | 17.78° C | 79% | 1009.5 hPa | - | - | 85 W/m² | - |
| 1777308085 | 17.78° C | 80% | 1009.5 hPa | - | - | 243 W/m² | - |
| 1777307454 | 17.78° C | 79% | 1009.6 hPa | - | - | 286 W/m² | - |
| 1777306823 | 18.89° C | 76% | 1009.6 hPa | - | - | 343 W/m² | - |
| 1777306193 | 18.89° C | 75% | 1009.6 hPa | - | - | 214 W/m² | - |
| 1777305562 | 18.89° C | 75% | 1009.6 hPa | - | - | 400 W/m² | - |
| 1777304932 | 20° C | 75% | 1009.7 hPa | - | - | 471 W/m² | - |
| 1777304301 | 18.89° C | 74% | 1009.8 hPa | - | - | 514 W/m² | - |
| 1777303671 | 20° C | 73% | 1009.9 hPa | - | - | 543 W/m² | - |
| 1777303039 | 20° C | 71% | 1009.8 hPa | - | - | 572 W/m² | - |
| 1777302407 | 20.56° C | 71% | 1009.7 hPa | - | - | 629 W/m² | - |
| 1777301776 | 20° C | 72% | 1009.9 hPa | - | - | 657 W/m² | - |
* Rain since midnight (hover to see other rain measurements)
** Current wind speed in m/s (hover to see current wind gust speed)